Regional Weather Roundup
Issued by NWS

Home | Current Version | Previous Version | Text Only | Print | Product List | Glossary On
Versions: 1 2 3 4 5 6 7 8 9 10 11 12 13 14 15 16 17 18 19 20 21 22 23 24 25 26 27
000
ASUS44 KBMX 241010
RWRAL

ALABAMA REGIONAL WEATHER ROUNDUP
NATIONAL WEATHER SERVICE BIRMINGHAM AL
400 AM CST SAT FEB 24 2018

NOTE: "FAIR" INDICATES FEW OR NO CLOUDS BELOW 12,000 FEET
WITH NO SIGNIFICANT WEATHER AND/OR OBSTRUCTIONS TO VISIBILITY.

THE REMARK "TC" DENOTES TEMPERATURE IN DEGREES CELSIUS.

ALZ001>011-014-016>018-020-241100-
NORTH ALABAMA

CITY           SKY/WX    TMP DP  RH WIND       PRES   REMARKS
MUSCLE SHOALS  CLOUDY    64  61  90 SE6       30.08F
HUNTSVILLE     CLOUDY    64  63  96 SE6       30.10F
DECATUR        CLOUDY    63  62  97 E5        30.10F
HALEYVILLE     NOT AVBL
GADSDEN        CLOUDY    61  61 100 CALM      30.14F
$$

ALZ012-013-022-023-030>036-040>044-241100-
WEST CENTRAL ALABAMA

CITY           SKY/WX    TMP DP  RH WIND       PRES   REMARKS
TUSCALOOSA     CLOUDY    69  67  93 S7        30.12F
DEMOPOLIS        N/A     69  64  82 S6        30.11F
$$

ALZ015-024>026-033>036-041>044-241100-
CENTRAL ALABAMA

CITY           SKY/WX    TMP DP  RH WIND       PRES   REMARKS
BIRMINGHAM     CLOUDY    70  59  68 S14       30.15F
MONTGOMERY     CLOUDY    64  62  93 S5        30.17S
SHELBY CO ARPT MOCLDY    67  63  87 S7        30.14F
MAXWELL AFB    CLOUDY    64  62  92 CALM      30.16S
GREENVILLE     MOCLDY    65  61  87 SE3       30.16F
SELMA          CLOUDY    66  64  94 S10       30.14F
PRATTVILLE     FAIR      60  60 100 CALM      30.16F
BESSEMER       PTSUNNY   66  63  90 S6        30.14F
TALLADEGA      MOCLDY    67  64  88 CALM      30.16F
PELL CITY      SUNNY     63  63 100 CALM      30.15F
MARION         CLOUDY    67  66  99 S10       30.12F
SYLACAUGA      MOCLDY    68  65  88 S7        30.16F
$$

ALZ019-021-028-029-037-038-045>048-241100-
EAST CENTRAL ALABAMA

CITY           SKY/WX    TMP DP  RH WIND       PRES   REMARKS
ANNISTON       MOCLDY    66  62  87 CALM      30.15F
ALEXANDER CITY FAIR      64  64 100 CALM      30.18F
AUBURN         FAIR      63  62  97 SE3       30.20F
$$

ALZ051>064-241100-
SOUTHWEST ALABAMA

CITY           SKY/WX    TMP DP  RH WIND       PRES   REMARKS
MOBILE         CLOUDY    70  68  93 SE10      30.13F
BROOKLEY FIELD CLOUDY    69  69 100 SE8       30.14F FOG
EVERGREEN      CLOUDY    67  65  93 SE5       30.17F FOG
$$

ALZ049-050-065>069-241100-
SOUTHEAST ALABAMA

CITY           SKY/WX    TMP DP  RH WIND       PRES   REMARKS
DOTHAN         LGT RAIN  59  57  93 SE5       30.22S FOG
OZARK          FOG       59  59 100 CALM      30.18S VSB 3/8
TROY           MOCLDY    59  59 100 S5        30.19S FOG
EUFAULA        FAIR      59  57  93 CALM      30.19R
$$




USA.gov is the U.S. government's official web portal to all federal, state and local government web resources and services.